BEIDOU-3 M17 (C36)

Last updated on Dec. 12, 2019, 4:25 a.m. UTC

1 43706U 18093A   19345.30475669  .00000004  00000-0  00000+0 0  9996
2 43706  54.7526 263.4559 0010512 267.4458 293.1304  1.86231725  7206
UTC
Height (km)
Latitude
Longitude
Inclination
Orbital Period
UTC large
Height (km)
Speed (km/s)
/
Latitude / Longitude
Inclination (degrees)
Orbital Period (minutes)
Azimuth
Elevation
Range (km)
Doppler Factor
iOS Compass Heading
iOS Angle

Next 30 passes for location: Hong Kong

Rise time Rise Azimuth (degrees) Set time Set Azimuth (degrees) Duration Max altitude (degrees)

No matching passes for this satellites